Regional Weather Roundup
Issued by NWS

Home | Current Version | Previous Version | Text Only | Print | Product List | Glossary Off
Versions: 1 2 3 4 5 6 7 8 9 10 11 12 13 14 15 16 17 18 19 20 21 22 23 24 25 26 27 28 29 30 31 32 33 34 35 36 37 38 39 40 41 42 43 44 45 46 47 48 49 50

258
ASUS43 KBIS 042002
RWRND

NORTH DAKOTA REGIONAL WEATHER ROUNDUP
NATIONAL WEATHER SERVICE BISMARCK ND
300 PM CDT WED MAY 04 2016

NOTE: "FAIR" INDICATES FEW OR NO CLOUDS BELOW 12,000 FEET WITH NO
SIGNIFICANT WEATHER AND/OR OBSTRUCTIONS TO VISIBILITY.


NDZ001>003-009>011-017-042100-
NORTHWEST NORTH DAKOTA

CITY           SKY/WX    TMP DP  RH WIND       PRES   REMARKS
WILLISTON      SUNNY     83  38  20 SW13G23   29.95F
MINOT          SUNNY     87  39  18 S7        29.94F
$$

NDZ018>021-031>035-040>046-042100-
SOUTHWEST NORTH DAKOTA

CITY           SKY/WX    TMP DP  RH WIND       PRES   REMARKS
BISMARCK       SUNNY     77  41  27 SE7       30.02F
DICKINSON      MOSUNNY   77  36  22 SE8G20    30.00F
GARRISON         N/A     80  39  23 S12       29.98F
HETTINGER ARPT MOSUNNY   74  39  28 SE9       30.06F
$$

NDZ004>008-012>016-024-026-027-054-042100-
NORTHEAST NORTH DAKOTA

CITY           SKY/WX    TMP DP  RH WIND       PRES   REMARKS
GRAND FORKS    MOSUNNY   67  33  28 VRB6      30.02F
GRND FRKS AFB  SUNNY     66  30  26 VRB3      30.02F
DEVILS LAKE    SUNNY     68  30  24 VRB7      30.03F
$$

NDZ022-023-025-028>030-036>039-047>053-042100-
SOUTHEAST NORTH DAKOTA

CITY           SKY/WX    TMP DP  RH WIND       PRES   REMARKS
FARGO          SUNNY     69  31  24 NW12G18   30.02F
JAMESTOWN      SUNNY     68  32  26 MISG      30.03F
$$





USA.gov is the U.S. government's official web portal to all federal, state and local government web resources and services.